OCN3MN LGIR-EDDF

Flight info

Callsign OCN3MN
Flight time N/A
Altitude 36000
Route EPALO UM749 DIRMI UL613 XANIS DCT DIMIS DCT PETAK DCT GLOMY/N0439F380 DCT ELTIB DCT TUPUS DCT GORPA DCT SIMBA DCT AKINI T161 DEBHI DEBHI1B
Aircraft A320/M-SDE2E3FGIJ1LORWXYZ/HB1

Departure

Time 2026-05-07 10:00
Airport Heraklion International Nikos Kazantzakis Airport (LGIR)

Arrival

Time N/A
Airport Frankfurt Main Airport (EDDF)
Time Latitude Longitude Altitude Speed Heading
2026-05-07 09:28 35.33806 25.17417 89 ft 0 kts 274°
2026-05-07 09:55 35.33806 25.17415 85 ft 1 kts 274°
2026-05-07 09:55 35.33817 25.17382 86 ft 7 kts 311°
2026-05-07 09:56 35.33861 25.17376 84 ft 5 kts
2026-05-07 09:56 35.33892 25.17377 87 ft 5 kts 352°
2026-05-07 09:56 35.33923 25.17334 85 ft 8 kts 285°
2026-05-07 09:56 35.33929 25.17262 82 ft 9 kts 275°
2026-05-07 09:57 35.33935 25.17182 80 ft 10 kts 275°
2026-05-07 09:57 35.33941 25.17093 68 ft 11 kts 275°
2026-05-07 09:57 35.33947 25.16998 74 ft 12 kts 275°
2026-05-07 09:57 35.33954 25.16898 74 ft 12 kts 275°
2026-05-07 09:58 35.33963 25.16798 69 ft 12 kts 280°
2026-05-07 09:58 35.33998 25.16708 68 ft 12 kts 303°
2026-05-07 09:58 35.34058 25.16674 69 ft 10 kts 39°
2026-05-07 09:58 35.34062 25.16752 71 ft 9 kts 94°
2026-05-07 09:59 35.34059 25.16811 72 ft 6 kts 94°
2026-05-07 09:59 35.34043 25.17053 84 ft 63 kts 95°
2026-05-07 09:59 35.33989 25.17859 98 ft 123 kts 94°
2026-05-07 09:59 35.33920 25.19103 222 ft 161 kts 92°
2026-05-07 10:00 35.33823 25.20482 858 ft 162 kts 94°
2026-05-07 10:00 35.33870 25.21853 1453 ft 164 kts 72°
2026-05-07 10:00 35.34521 25.23066 1715 ft 184 kts 38°
2026-05-07 10:00 35.35767 25.23645 1874 ft 206 kts
2026-05-07 10:01 35.37151 25.23062 2087 ft 221 kts 318°
2026-05-07 10:01 35.38010 25.21493 2553 ft 225 kts 295°
2026-05-07 10:01 35.38673 25.19779 3115 ft 226 kts 293°
2026-05-07 10:01 35.39334 25.18026 3699 ft 227 kts 293°
2026-05-07 10:02 35.39999 25.16265 4270 ft 228 kts 295°
2026-05-07 10:02 35.40973 25.14725 4807 ft 233 kts 322°
2026-05-07 10:02 35.42437 25.13849 5249 ft 241 kts 339°
2026-05-07 10:02 35.44084 25.13123 5366 ft 262 kts 340°
2026-05-07 10:03 35.45855 25.12351 5614 ft 276 kts 340°
2026-05-07 10:03 35.47684 25.11557 6058 ft 280 kts 340°
2026-05-07 10:03 35.49525 25.10756 6580 ft 281 kts 340°
2026-05-07 10:03 35.51384 25.09942 7022 ft 284 kts 340°
2026-05-07 10:04 35.53243 25.09126 7522 ft 284 kts 340°
2026-05-07 10:04 35.55106 25.08306 8014 ft 284 kts 340°
2026-05-07 10:04 35.56966 25.07483 8509 ft 284 kts 340°
2026-05-07 10:04 35.58823 25.06664 8989 ft 284 kts 340°
2026-05-07 10:05 35.60660 25.05853 9439 ft 285 kts 340°
2026-05-07 10:05 35.62549 25.05018 9898 ft 285 kts 340°
2026-05-07 10:05 35.64424 25.04189 10258 ft 288 kts 340°
2026-05-07 10:05 35.65682 25.03631 10410 ft 294 kts 340°
2026-05-07 10:06 35.67639 25.02763 10534 ft 304 kts 340°
2026-05-07 10:06 35.70323 25.01573 10701 ft 315 kts 340°
2026-05-07 10:06 35.71727 25.00950 10777 ft 319 kts 340°
2026-05-07 10:06 35.73828 24.99995 10945 ft 323 kts 339°
2026-05-07 10:07 35.75937 24.99009 11174 ft 325 kts 339°
2026-05-07 10:07 35.78049 24.98010 11415 ft 326 kts 338°
2026-05-07 10:07 35.80140 24.97017 11648 ft 326 kts 338°
2026-05-07 10:07 35.82264 24.96008 11883 ft 327 kts 338°
2026-05-07 10:08 35.84394 24.94999 12103 ft 328 kts 339°
2026-05-07 10:08 35.86529 24.93993 12324 ft 329 kts 339°
2026-05-07 10:08 35.88672 24.92987 12528 ft 330 kts 339°
2026-05-07 10:08 35.90821 24.91977 12737 ft 330 kts 339°
2026-05-07 10:09 35.92969 24.90967 12938 ft 331 kts 339°
2026-05-07 10:09 35.95095 24.89965 13127 ft 331 kts 338°
2026-05-07 10:09 35.97248 24.88946 13308 ft 332 kts 338°
2026-05-07 10:09 35.99418 24.87915 13491 ft 333 kts 338°
2026-05-07 10:10 36.01587 24.86885 13665 ft 334 kts 338°
2026-05-07 10:10 36.03754 24.85856 13845 ft 334 kts 338°
2026-05-07 10:10 36.05846 24.84613 13995 ft 334 kts 327°
2026-05-07 10:10 36.07710 24.82904 14129 ft 334 kts 321°
2026-05-07 10:11 36.09527 24.81092 14261 ft 335 kts 321°
2026-05-07 10:11 36.11324 24.79309 14385 ft 336 kts 321°
2026-05-07 10:11 36.13152 24.77501 14510 ft 337 kts 321°
2026-05-07 10:11 36.14981 24.75692 14631 ft 337 kts 321°
2026-05-07 10:12 36.16815 24.73877 14744 ft 338 kts 321°
2026-05-07 10:12 36.18650 24.72056 14861 ft 338 kts 321°
2026-05-07 10:12 36.20486 24.70228 14986 ft 339 kts 321°
2026-05-07 10:12 36.22323 24.68404 15105 ft 339 kts 321°
2026-05-07 10:13 36.24163 24.66578 15222 ft 339 kts 321°
2026-05-07 10:13 36.26003 24.64748 15345 ft 339 kts 320°
2026-05-07 10:13 36.27841 24.62917 15461 ft 339 kts 320°
2026-05-07 10:13 36.29682 24.61082 15584 ft 339 kts 320°
2026-05-07 10:14 36.31520 24.59246 15700 ft 339 kts 320°
2026-05-07 10:14 36.33359 24.57411 15827 ft 339 kts 320°
2026-05-07 10:14 36.35175 24.55603 15947 ft 339 kts 320°
2026-05-07 10:14 36.37012 24.53769 16070 ft 339 kts 320°
2026-05-07 10:15 36.38851 24.51930 16195 ft 339 kts 320°
2026-05-07 10:15 36.40685 24.50093 16317 ft 339 kts 320°
2026-05-07 10:15 36.42520 24.48251 16441 ft 339 kts 320°
2026-05-07 10:15 36.44350 24.46411 16566 ft 339 kts 320°
2026-05-07 10:16 36.46182 24.44571 16691 ft 339 kts 320°
2026-05-07 10:16 36.48016 24.42731 16816 ft 339 kts 320°
2026-05-07 10:16 36.49847 24.40893 16945 ft 338 kts 320°
2026-05-07 10:16 36.51678 24.39057 17065 ft 338 kts 320°
2026-05-07 10:17 36.53512 24.37216 17209 ft 338 kts 319°
2026-05-07 10:17 36.55343 24.35379 17322 ft 338 kts 319°
2026-05-07 10:17 36.57172 24.33539 17446 ft 338 kts 319°
2026-05-07 10:17 36.59005 24.31694 17584 ft 338 kts 319°
2026-05-07 10:18 36.60835 24.29849 17703 ft 338 kts 319°
2026-05-07 10:18 36.62660 24.28007 17830 ft 338 kts 319°
2026-05-07 10:18 36.64487 24.26166 17967 ft 338 kts 319°
2026-05-07 10:18 36.66315 24.24324 18093 ft 338 kts 319°
2026-05-07 10:19 36.68140 24.22480 18231 ft 338 kts 319°
2026-05-07 10:19 36.69965 24.20637 18363 ft 338 kts 319°
2026-05-07 10:19 36.71767 24.18819 18486 ft 338 kts 319°
2026-05-07 10:19 36.73614 24.16952 18602 ft 337 kts 319°
2026-05-07 10:20 36.75436 24.15108 18717 ft 337 kts 319°
2026-05-07 10:20 36.77231 24.13287 18825 ft 337 kts 319°
2026-05-07 10:20 36.79048 24.11441 18940 ft 337 kts 319°
2026-05-07 10:20 36.80864 24.09593 19056 ft 337 kts 319°
2026-05-07 10:21 36.82678 24.07746 19182 ft 336 kts 318°
2026-05-07 10:21 36.84493 24.05900 19307 ft 336 kts 318°
2026-05-07 10:21 36.86308 24.04058 19414 ft 336 kts 318°
2026-05-07 10:21 36.88123 24.02212 19533 ft 336 kts 318°
2026-05-07 10:22 36.89932 24.00369 19649 ft 336 kts 318°
2026-05-07 10:22 36.91743 23.98528 19765 ft 335 kts 318°
2026-05-07 10:22 36.93555 23.96686 19887 ft 335 kts 318°
2026-05-07 10:22 36.95365 23.94845 20005 ft 335 kts 318°
2026-05-07 10:23 36.97153 23.93021 20123 ft 335 kts 318°
2026-05-07 10:23 36.98959 23.91178 20243 ft 335 kts 318°
2026-05-07 10:23 37.00764 23.89337 20359 ft 335 kts 318°
2026-05-07 10:23 37.02567 23.87498 20483 ft 334 kts 318°
2026-05-07 10:24 37.04369 23.85659 20605 ft 334 kts 318°
2026-05-07 10:24 37.06170 23.83818 20730 ft 334 kts 318°
2026-05-07 10:24 37.07971 23.81977 20844 ft 334 kts 318°
2026-05-07 10:24 37.09769 23.80136 20975 ft 334 kts 318°
2026-05-07 10:25 37.11568 23.78292 21105 ft 333 kts 318°
2026-05-07 10:25 37.13363 23.76452 21230 ft 333 kts 318°
2026-05-07 10:25 37.15139 23.74633 21352 ft 333 kts 317°
2026-05-07 10:25 37.16930 23.72796 21478 ft 333 kts 317°
2026-05-07 10:26 37.18720 23.70957 21602 ft 332 kts 317°
2026-05-07 10:26 37.20508 23.69118 21727 ft 332 kts 317°
2026-05-07 10:26 37.22293 23.67280 21853 ft 332 kts 317°
2026-05-07 10:26 37.24077 23.65445 21979 ft 332 kts 317°
2026-05-07 10:27 37.25864 23.63607 22113 ft 331 kts 317°
2026-05-07 10:27 37.27647 23.61771 22234 ft 331 kts 317°
2026-05-07 10:27 37.29427 23.59937 22368 ft 331 kts 317°
2026-05-07 10:27 37.31203 23.58105 22497 ft 330 kts 317°
2026-05-07 10:28 37.32978 23.56274 22628 ft 330 kts 317°
2026-05-07 10:28 37.34751 23.54445 22766 ft 330 kts 317°
2026-05-07 10:28 37.36527 23.52613 22891 ft 329 kts 317°
2026-05-07 10:28 37.38299 23.50778 23010 ft 329 kts 317°
2026-05-07 10:29 37.40061 23.48951 23168 ft 328 kts 317°
2026-05-07 10:29 37.41826 23.47125 23294 ft 328 kts 317°
2026-05-07 10:29 37.43567 23.45326 23434 ft 328 kts 317°
2026-05-07 10:30 37.47099 23.41668 23696 ft 328 kts 317°
2026-05-07 10:30 37.48862 23.39835 23812 ft 328 kts 316°
2026-05-07 10:30 37.50619 23.38003 23926 ft 328 kts 316°
2026-05-07 10:30 37.52377 23.36170 24037 ft 327 kts 316°
2026-05-07 10:31 37.54138 23.34339 24153 ft 328 kts 317°
2026-05-07 10:31 37.55894 23.32516 24268 ft 327 kts 317°
2026-05-07 10:31 37.57649 23.30692 24382 ft 326 kts 316°
2026-05-07 10:31 37.59400 23.28869 24498 ft 326 kts 316°
2026-05-07 10:32 37.61148 23.27051 24613 ft 325 kts 316°
2026-05-07 10:32 37.62870 23.25261 24729 ft 324 kts 316°
2026-05-07 10:32 37.64609 23.23450 24843 ft 324 kts 316°
2026-05-07 10:32 37.66342 23.21640 24953 ft 323 kts 316°
2026-05-07 10:33 37.68074 23.19824 25092 ft 323 kts 316°
2026-05-07 10:33 37.69799 23.18011 25210 ft 322 kts 316°
2026-05-07 10:33 37.71525 23.16203 25329 ft 321 kts 316°
2026-05-07 10:33 37.73247 23.14403 25448 ft 321 kts 316°
2026-05-07 10:34 37.74968 23.12606 25565 ft 320 kts 316°
2026-05-07 10:34 37.76679 23.10813 25688 ft 319 kts 316°
2026-05-07 10:34 37.78385 23.09023 25799 ft 318 kts 316°
2026-05-07 10:34 37.80086 23.07241 25922 ft 317 kts 316°
2026-05-07 10:35 37.81783 23.05462 26037 ft 316 kts 316°
2026-05-07 10:35 37.83474 23.03688 26165 ft 316 kts 316°
2026-05-07 10:35 37.85164 23.01910 26287 ft 315 kts 316°
2026-05-07 10:35 37.86827 23.00160 26409 ft 314 kts 316°
2026-05-07 10:36 37.88506 22.98390 26536 ft 313 kts 316°
2026-05-07 10:36 37.90180 22.96625 26655 ft 312 kts 315°
2026-05-07 10:36 37.91847 22.94862 26780 ft 312 kts 315°
2026-05-07 10:36 37.93515 22.93089 26906 ft 311 kts 315°
2026-05-07 10:37 37.95127 22.91281 27049 ft 309 kts 314°
2026-05-07 10:37 37.96712 22.89437 27175 ft 309 kts 313°
2026-05-07 10:37 37.98285 22.87582 27311 ft 308 kts 313°
2026-05-07 10:37 37.99829 22.85757 27429 ft 308 kts 313°
2026-05-07 10:38 38.01397 22.83911 27557 ft 307 kts 313°
2026-05-07 10:38 38.02965 22.82073 27689 ft 307 kts 313°
2026-05-07 10:38 38.04535 22.80240 27817 ft 306 kts 313°
2026-05-07 10:38 38.06104 22.78415 27945 ft 305 kts 313°
2026-05-07 10:39 38.07669 22.76596 28080 ft 305 kts 313°
2026-05-07 10:39 38.09232 22.74778 28204 ft 304 kts 313°
2026-05-07 10:39 38.10787 22.72963 28347 ft 303 kts 313°
2026-05-07 10:39 38.12336 22.71149 28477 ft 302 kts 313°
2026-05-07 10:40 38.13883 22.69344 28616 ft 302 kts 313°
2026-05-07 10:40 38.15431 22.67544 28750 ft 301 kts 313°
2026-05-07 10:40 38.16977 22.65745 28885 ft 300 kts 313°
2026-05-07 10:40 38.18494 22.63982 29019 ft 299 kts 313°
2026-05-07 10:41 38.20029 22.62202 29155 ft 298 kts 313°
2026-05-07 10:41 38.21558 22.60427 29290 ft 297 kts 313°
2026-05-07 10:41 38.23076 22.58661 29429 ft 295 kts 313°
2026-05-07 10:41 38.24588 22.56899 29572 ft 294 kts 313°
2026-05-07 10:42 38.26094 22.55140 29709 ft 293 kts 313°
2026-05-07 10:42 38.27595 22.53386 29859 ft 292 kts 313°
2026-05-07 10:42 38.29090 22.51642 29992 ft 291 kts 313°
2026-05-07 10:42 38.30585 22.49897 30130 ft 290 kts 313°
2026-05-07 10:43 38.32068 22.48163 30261 ft 289 kts 313°
2026-05-07 10:43 38.33542 22.46441 30375 ft 287 kts 313°
2026-05-07 10:43 38.35013 22.44722 30506 ft 286 kts 313°
2026-05-07 10:43 38.36473 22.43013 30629 ft 284 kts 313°
2026-05-07 10:44 38.37902 22.41340 30738 ft 282 kts 313°
2026-05-07 10:44 38.39343 22.39650 30865 ft 280 kts 313°
2026-05-07 10:44 38.40771 22.37973 30985 ft 278 kts 313°
2026-05-07 10:44 38.42189 22.36308 31110 ft 276 kts 313°
2026-05-07 10:45 38.43594 22.34652 31226 ft 274 kts 312°
2026-05-07 10:45 38.44987 22.33005 31289 ft 273 kts 312°
2026-05-07 10:45 38.46382 22.31347 31276 ft 275 kts 312°
2026-05-07 10:45 38.47781 22.29675 31262 ft 276 kts 312°
2026-05-07 10:46 38.49185 22.27990 31315 ft 276 kts 312°
2026-05-07 10:46 38.50576 22.26312 31423 ft 274 kts 312°
2026-05-07 10:46 38.51959 22.24640 31512 ft 274 kts 311°
2026-05-07 10:46 38.53340 22.22963 31569 ft 274 kts 311°
2026-05-07 10:47 38.54721 22.21275 31607 ft 275 kts 311°
2026-05-07 10:47 38.56106 22.19576 31681 ft 275 kts 311°
2026-05-07 10:47 38.57467 22.17899 31796 ft 274 kts 311°
2026-05-07 10:47 38.58834 22.16208 31873 ft 274 kts 311°
2026-05-07 10:48 38.60205 22.14505 31889 ft 275 kts 311°
2026-05-07 10:48 38.61580 22.12787 31953 ft 276 kts 311°
2026-05-07 10:48 38.62933 22.11092 32260 ft 266 kts 310°
2026-05-07 10:48 38.64232 22.09470 32570 ft 258 kts 310°
2026-05-07 10:49 38.65520 22.07856 32544 ft 262 kts 310°
2026-05-07 10:49 38.66841 22.06185 32324 ft 271 kts 310°
2026-05-07 10:49 38.68183 22.04472 32313 ft 272 kts 310°
2026-05-07 10:49 38.69504 22.02782 32564 ft 264 kts 310°
2026-05-07 10:50 38.70786 22.01143 32757 ft 259 kts 310°
2026-05-07 10:50 38.72069 21.99495 32666 ft 265 kts 310°
2026-05-07 10:50 38.73365 21.97815 32532 ft 270 kts 309°
2026-05-07 10:50 38.74683 21.96098 32594 ft 269 kts 309°
2026-05-07 10:51 38.75980 21.94403 32806 ft 263 kts 309°
2026-05-07 10:51 38.77253 21.92737 32892 ft 262 kts 309°
2026-05-07 10:51 38.78531 21.91055 32818 ft 265 kts 309°
2026-05-07 10:51 38.79829 21.89334 32750 ft 270 kts 309°
2026-05-07 10:52 38.81133 21.87593 32738 ft 272 kts 308°
2026-05-07 10:52 38.82429 21.85856 32934 ft 265 kts 308°
2026-05-07 10:52 38.83682 21.84180 33201 ft 257 kts 308°
2026-05-07 10:52 38.84918 21.82524 33177 ft 259 kts 308°
2026-05-07 10:53 38.86176 21.80822 33004 ft 266 kts 308°
2026-05-07 10:53 38.87021 21.79670 32967 ft 268 kts 307°
2026-05-07 10:53 38.88697 21.77381 33167 ft 262 kts 307°
2026-05-07 10:53 38.89937 21.75684 33283 ft 260 kts 307°
2026-05-07 10:54 38.91175 21.73983 33233 ft 262 kts 307°
2026-05-07 10:54 38.92426 21.72252 33138 ft 267 kts 307°
2026-05-07 10:54 38.93686 21.70495 33187 ft 266 kts 307°
2026-05-07 10:54 38.94510 21.69344 33299 ft 263 kts 306°
2026-05-07 10:55 38.95739 21.67626 33434 ft 260 kts 306°
2026-05-07 10:55 38.96959 21.65913 33429 ft 261 kts 306°
2026-05-07 10:55 38.98187 21.64178 33343 ft 264 kts 306°
2026-05-07 10:55 38.99419 21.62427 33327 ft 265 kts 306°
2026-05-07 10:56 39.00650 21.60670 33401 ft 263 kts 306°
2026-05-07 10:56 39.01866 21.58928 33499 ft 261 kts 306°
2026-05-07 10:56 39.03078 21.57186 33520 ft 261 kts 306°
2026-05-07 10:56 39.04292 21.55431 33495 ft 263 kts 306°
2026-05-07 10:57 39.05509 21.53661 33501 ft 264 kts 305°
2026-05-07 10:57 39.06718 21.51895 33577 ft 262 kts 305°
2026-05-07 10:57 39.07907 21.50153 33657 ft 261 kts 305°
2026-05-07 10:57 39.09103 21.48394 33666 ft 262 kts 305°
2026-05-07 10:58 39.10300 21.46623 33655 ft 263 kts 305°
2026-05-07 10:58 39.11510 21.44823 33510 ft 269 kts 306°
2026-05-07 10:58 39.12748 21.42964 33332 ft 276 kts 306°
2026-05-07 10:58 39.13991 21.41086 33421 ft 273 kts 306°
2026-05-07 10:59 39.15207 21.39248 33646 ft 266 kts 306°
2026-05-07 10:59 39.16402 21.37439 33728 ft 265 kts 305°
2026-05-07 10:59 39.17606 21.35603 33599 ft 271 kts 305°
2026-05-07 10:59 39.18828 21.33728 33524 ft 274 kts 305°
2026-05-07 11:00 39.20048 21.31845 33669 ft 271 kts 305°
2026-05-07 11:00 39.21242 21.30005 33886 ft 264 kts 305°
2026-05-07 11:00 39.22419 21.28185 33895 ft 264 kts 305°
2026-05-07 11:00 39.23606 21.26336 33679 ft 272 kts 304°
2026-05-07 11:01 39.24821 21.24427 33580 ft 276 kts 304°
2026-05-07 11:01 39.26024 21.22531 33749 ft 270 kts 304°
2026-05-07 11:01 39.27199 21.20677 33971 ft 264 kts 304°
2026-05-07 11:01 39.28347 21.18861 33962 ft 266 kts 304°
2026-05-07 11:02 39.29525 21.16983 33785 ft 272 kts 304°
2026-05-07 11:02 39.30715 21.15072 33746 ft 273 kts 304°
2026-05-07 11:02 39.31896 21.13171 33934 ft 268 kts 303°
2026-05-07 11:02 39.33052 21.11307 34087 ft 264 kts 303°
2026-05-07 11:03 39.34201 21.09450 34052 ft 266 kts 303°
2026-05-07 11:03 39.35364 21.07557 33921 ft 271 kts 303°
2026-05-07 11:03 39.36534 21.05639 33901 ft 272 kts 303°
2026-05-07 11:03 39.37693 21.03732 34031 ft 267 kts 303°
2026-05-07 11:04 39.38835 21.01852 34120 ft 266 kts 303°
2026-05-07 11:04 39.39979 20.99957 34064 ft 269 kts 302°
2026-05-07 11:04 39.41135 20.98028 34036 ft 273 kts 303°
2026-05-07 11:04 39.42314 20.96051 33791 ft 282 kts 303°
2026-05-07 11:05 39.43519 20.94014 33664 ft 287 kts 303°
2026-05-07 11:05 39.44719 20.91977 33846 ft 281 kts 303°
2026-05-07 11:05 39.45871 20.90018 34085 ft 274 kts 303°
2026-05-07 11:05 39.47026 20.88051 34086 ft 276 kts 303°
2026-05-07 11:06 39.48196 20.86042 33908 ft 283 kts 303°
2026-05-07 11:06 39.49380 20.83995 33865 ft 284 kts 303°
2026-05-07 11:06 39.50555 20.81958 34021 ft 279 kts 303°
2026-05-07 11:06 39.51704 20.79959 34133 ft 276 kts 302°
2026-05-07 11:07 39.52862 20.77934 33920 ft 284 kts 302°
2026-05-07 11:07 39.54048 20.75839 33705 ft 291 kts 302°
2026-05-07 11:07 39.55237 20.73729 33818 ft 286 kts 302°
2026-05-07 11:07 39.56393 20.71675 34075 ft 279 kts 302°
2026-05-07 11:08 39.57520 20.69669 34111 ft 279 kts 301°
2026-05-07 11:08 39.58670 20.67610 33932 ft 284 kts 301°
2026-05-07 11:08 39.59836 20.65506 33795 ft 289 kts 301°
2026-05-07 11:08 39.61000 20.63396 33928 ft 285 kts 301°
2026-05-07 11:09 39.62138 20.61331 34121 ft 278 kts 301°
2026-05-07 11:09 39.63260 20.59289 34136 ft 279 kts 301°
2026-05-07 11:09 39.64390 20.57220 33975 ft 284 kts 301°
2026-05-07 11:09 39.65537 20.55104 33888 ft 287 kts 301°
2026-05-07 11:10 39.66664 20.53016 34029 ft 283 kts 301°
2026-05-07 11:10 39.67783 20.50939 34195 ft 279 kts 301°
2026-05-07 11:10 39.68893 20.48870 34195 ft 281 kts 300°
2026-05-07 11:10 39.70016 20.46763 34120 ft 286 kts 300°
2026-05-07 11:11 39.71135 20.44657 34329 ft 277 kts 300°
2026-05-07 11:11 39.72207 20.42647 34639 ft 266 kts 300°
2026-05-07 11:11 39.73267 20.40661 34509 ft 273 kts 300°
2026-05-07 11:11 39.74385 20.38538 33872 ft 296 kts 300°
2026-05-07 11:12 39.75555 20.36283 33680 ft 301 kts 300°
2026-05-07 11:12 39.76690 20.34096 34195 ft 282 kts 300°
2026-05-07 11:12 39.77762 20.32045 34534 ft 270 kts 299°
2026-05-07 11:12 39.78827 20.30001 34291 ft 280 kts 299°
2026-05-07 11:13 39.79944 20.27826 33822 ft 296 kts 299°
2026-05-07 11:13 39.81084 20.25588 33902 ft 293 kts 299°
2026-05-07 11:13 39.82179 20.23442 34362 ft 277 kts 299°
2026-05-07 11:13 39.83232 20.21384 34537 ft 273 kts 299°
2026-05-07 11:14 39.84299 20.19284 34282 ft 283 kts 299°
2026-05-07 11:14 39.85384 20.17124 33985 ft 293 kts 298°
2026-05-07 11:14 39.86505 20.14878 34101 ft 288 kts 298°
2026-05-07 11:14 39.87576 20.12734 34448 ft 276 kts 298°
2026-05-07 11:15 39.88611 20.10674 34675 ft 269 kts 298°
2026-05-07 11:15 39.89623 20.08650 34564 ft 274 kts 298°
2026-05-07 11:15 39.90674 20.06527 34319 ft 283 kts 298°
2026-05-07 11:15 39.91739 20.04359 34312 ft 282 kts 298°
2026-05-07 11:16 39.92781 20.02236 34522 ft 274 kts 298°
2026-05-07 11:16 39.93800 20.00157 34624 ft 271 kts 298°
2026-05-07 11:16 39.94819 19.98065 34484 ft 276 kts 298°
2026-05-07 11:16 39.95854 19.95923 34334 ft 281 kts 297°
2026-05-07 11:17 39.96891 19.93764 34375 ft 279 kts 297°
2026-05-07 11:17 39.97912 19.91634 34516 ft 274 kts 297°
2026-05-07 11:17 39.98903 19.89561 34556 ft 273 kts 297°
2026-05-07 11:17 39.99910 19.87441 34460 ft 277 kts 297°
2026-05-07 11:18 40.00927 19.85285 34393 ft 279 kts 297°
2026-05-07 11:18 40.01938 19.83131 34462 ft 276 kts 297°
2026-05-07 11:18 40.02933 19.81007 34549 ft 273 kts 297°
2026-05-07 11:18 40.03922 19.78888 34550 ft 273 kts 297°
2026-05-07 11:19 40.04906 19.76767 34565 ft 272 kts 296°
2026-05-07 11:19 40.05883 19.74656 34597 ft 272 kts 296°
2026-05-07 11:19 40.06868 19.72517 34411 ft 279 kts 296°
2026-05-07 11:19 40.07877 19.70303 34229 ft 286 kts 296°
2026-05-07 11:20 40.08872 19.68109 34319 ft 282 kts 296°
2026-05-07 11:20 40.09856 19.65937 34510 ft 274 kts 296°
2026-05-07 11:20 40.10823 19.63796 34537 ft 274 kts 296°
2026-05-07 11:20 40.11799 19.61620 34376 ft 281 kts 296°
2026-05-07 11:21 40.12787 19.59400 34305 ft 283 kts 296°
2026-05-07 11:21 40.13767 19.57190 34409 ft 278 kts 296°
2026-05-07 11:21 40.14727 19.55020 34517 ft 274 kts 296°
2026-05-07 11:21 40.15682 19.52852 34483 ft 276 kts 295°
2026-05-07 11:22 40.16645 19.50650 34367 ft 281 kts 295°
2026-05-07 11:22 40.17610 19.48428 34364 ft 280 kts 295°
2026-05-07 11:22 40.18563 19.46227 34465 ft 276 kts 295°
2026-05-07 11:22 40.19504 19.44049 34551 ft 274 kts 295°
2026-05-07 11:23 40.20437 19.41879 34522 ft 275 kts 295°
2026-05-07 11:23 40.21374 19.39685 34461 ft 277 kts 295°
2026-05-07 11:23 40.22301 19.37503 34442 ft 277 kts 295°
2026-05-07 11:23 40.23231 19.35303 34498 ft 275 kts 295°
2026-05-07 11:24 40.24154 19.33111 34547 ft 274 kts 295°
2026-05-07 11:24 40.25070 19.30925 34517 ft 275 kts 294°
2026-05-07 11:24 40.25988 19.28720 34478 ft 276 kts 294°
2026-05-07 11:24 40.26906 19.26505 34481 ft 276 kts 294°
2026-05-07 11:25 40.27814 19.24302 34517 ft 274 kts 294°
2026-05-07 11:25 40.28716 19.22104 34532 ft 274 kts 294°
2026-05-07 11:25 40.29615 19.19903 34507 ft 275 kts 294°
2026-05-07 11:25 40.30516 19.17685 34480 ft 276 kts 294°
2026-05-07 11:26 40.31413 19.15462 34495 ft 275 kts 294°
2026-05-07 11:26 40.32303 19.13250 34527 ft 273 kts 294°
2026-05-07 11:26 40.33173 19.11074 34555 ft 272 kts 294°
2026-05-07 11:26 40.34045 19.08886 34649 ft 269 kts 294°
2026-05-07 11:27 40.34904 19.06724 34695 ft 267 kts 294°
2026-05-07 11:27 40.35761 19.04555 34646 ft 269 kts 293°
2026-05-07 11:27 40.36621 19.02364 34567 ft 271 kts 293°
2026-05-07 11:27 40.37481 19.00160 34585 ft 270 kts 293°
2026-05-07 11:28 40.38330 18.97973 34649 ft 268 kts 293°
2026-05-07 11:28 40.39170 18.95800 34658 ft 267 kts 293°
2026-05-07 11:28 40.40012 18.93610 34603 ft 269 kts 293°
2026-05-07 11:28 40.40854 18.91407 34564 ft 270 kts 293°
2026-05-07 11:29 40.41693 18.89199 34595 ft 270 kts 292°
2026-05-07 11:29 40.42525 18.86997 34482 ft 275 kts 292°
2026-05-07 11:29 40.43379 18.84722 34398 ft 278 kts 292°
2026-05-07 11:29 40.44225 18.82454 34460 ft 275 kts 292°
2026-05-07 11:30 40.45057 18.80216 34564 ft 271 kts 292°
2026-05-07 11:30 40.45883 18.77988 34563 ft 272 kts 292°
2026-05-07 11:30 40.46707 18.75749 34527 ft 272 kts 292°
2026-05-07 11:30 40.47526 18.73513 34593 ft 270 kts 292°
2026-05-07 11:31 40.48336 18.71295 34636 ft 268 kts 292°
2026-05-07 11:31 40.49129 18.69110 34605 ft 270 kts 292°
2026-05-07 11:31 40.49936 18.66875 34554 ft 271 kts 292°
2026-05-07 11:31 40.50740 18.64632 34558 ft 271 kts 292°
2026-05-07 11:32 40.52329 18.60169 34620 ft 269 kts 292°
2026-05-07 11:32 40.53118 18.57936 34590 ft 270 kts 292°
2026-05-07 11:32 40.53906 18.55692 34561 ft 271 kts 291°
2026-05-07 11:33 40.54691 18.53443 34575 ft 270 kts 291°
2026-05-07 11:33 40.55470 18.51202 34612 ft 269 kts 291°
2026-05-07 11:33 40.56244 18.48964 34614 ft 269 kts 291°
2026-05-07 11:33 40.57014 18.46721 34585 ft 270 kts 291°
2026-05-07 11:34 40.57783 18.44468 34573 ft 270 kts 291°
2026-05-07 11:34 40.58548 18.42218 34616 ft 268 kts 291°
2026-05-07 11:34 40.59300 18.39993 34725 ft 264 kts 291°
2026-05-07 11:34 40.60041 18.37792 34771 ft 262 kts 291°
2026-05-07 11:35 40.60771 18.35611 34702 ft 265 kts 291°
2026-05-07 11:35 40.61515 18.33372 34628 ft 268 kts 291°
2026-05-07 11:35 40.62257 18.31125 34664 ft 266 kts 291°
2026-05-07 11:35 40.62989 18.28901 34730 ft 263 kts 291°
2026-05-07 11:36 40.63713 18.26685 34728 ft 263 kts 291°
2026-05-07 11:36 40.64437 18.24458 34672 ft 266 kts 291°
2026-05-07 11:36 40.65162 18.22213 34652 ft 266 kts 291°
2026-05-07 11:36 40.65880 18.19976 34694 ft 264 kts 290°
2026-05-07 11:37 40.66591 18.17750 34734 ft 263 kts 290°
2026-05-07 11:37 40.67296 18.15528 34711 ft 264 kts 290°
2026-05-07 11:37 40.68003 18.13288 34671 ft 265 kts 290°
2026-05-07 11:37 40.68707 18.11042 34670 ft 265 kts 290°
2026-05-07 11:38 40.69405 18.08802 34698 ft 264 kts 290°
2026-05-07 11:38 40.70098 18.06564 34713 ft 263 kts 290°
2026-05-07 11:38 40.70788 18.04324 34692 ft 264 kts 290°
2026-05-07 11:38 40.71477 18.02074 34670 ft 265 kts 290°
2026-05-07 11:39 40.72161 17.99825 34681 ft 264 kts 290°
2026-05-07 11:39 40.72831 17.97606 34718 ft 263 kts 290°
2026-05-07 11:39 40.73505 17.95364 34719 ft 263 kts 289°
2026-05-07 11:39 40.74176 17.93118 34692 ft 264 kts 289°
2026-05-07 11:40 40.74846 17.90860 34684 ft 264 kts 289°
2026-05-07 11:40 40.75510 17.88606 34705 ft 263 kts 289°
2026-05-07 11:40 40.76169 17.86357 34723 ft 263 kts 289°
2026-05-07 11:40 40.76826 17.84103 34716 ft 263 kts 289°
2026-05-07 11:41 40.77478 17.81846 34704 ft 263 kts 289°
2026-05-07 11:41 40.78128 17.79585 34723 ft 263 kts 289°
2026-05-07 11:41 40.78772 17.77330 34738 ft 262 kts 289°
2026-05-07 11:41 40.79405 17.75103 34738 ft 263 kts 289°
2026-05-07 11:42 40.80042 17.72842 34756 ft 262 kts 288°
2026-05-07 11:42 40.80670 17.70602 34830 ft 259 kts 288°
2026-05-07 11:42 40.81291 17.68376 34843 ft 258 kts 288°
2026-05-07 11:42 40.81910 17.66141 34800 ft 260 kts 288°
2026-05-07 11:43 40.82529 17.63887 34750 ft 261 kts 288°
2026-05-07 11:43 40.83144 17.61634 34794 ft 260 kts 288°
2026-05-07 11:43 40.83753 17.59389 34823 ft 260 kts 288°
2026-05-07 11:43 40.84364 17.57122 34721 ft 264 kts 288°
2026-05-07 11:44 40.84976 17.54829 34681 ft 265 kts 288°
2026-05-07 11:44 40.85583 17.52545 34763 ft 262 kts 288°
2026-05-07 11:44 40.86178 17.50288 34827 ft 260 kts 287°
2026-05-07 11:44 40.86772 17.48025 34785 ft 261 kts 287°
2026-05-07 11:45 40.87366 17.45742 34717 ft 264 kts 287°
2026-05-07 11:45 40.87759 17.44221 34715 ft 264 kts 287°
2026-05-07 11:45 40.88347 17.41935 34774 ft 261 kts 287°
2026-05-07 11:45 40.88926 17.39667 34827 ft 260 kts 287°
2026-05-07 11:46 40.89502 17.37399 34831 ft 260 kts 286°
2026-05-07 11:46 40.90257 17.34397 34845 ft 260 kts 286°
2026-05-07 11:46 40.90640 17.32866 34847 ft 259 kts 286°
2026-05-07 11:46 40.91202 17.30600 34838 ft 260 kts 286°
2026-05-07 11:47 40.91763 17.28326 34830 ft 260 kts 285°
2026-05-07 11:47 40.92319 17.26051 34831 ft 260 kts 285°
2026-05-07 11:47 40.92872 17.23777 34830 ft 260 kts 285°
2026-05-07 11:47 40.93421 17.21501 34828 ft 260 kts 285°
2026-05-07 11:48 40.93958 17.19254 34828 ft 259 kts 285°
2026-05-07 11:48 40.94499 17.16980 34846 ft 259 kts 285°
2026-05-07 11:48 40.95034 17.14709 34854 ft 259 kts 285°
2026-05-07 11:48 40.95566 17.12437 34845 ft 259 kts 285°
2026-05-07 11:49 40.96096 17.10158 34836 ft 259 kts 285°
2026-05-07 11:49 40.96621 17.07880 34847 ft 259 kts 285°
2026-05-07 11:49 40.97142 17.05600 34861 ft 258 kts 285°
2026-05-07 11:49 40.97658 17.03327 34895 ft 257 kts 284°
2026-05-07 11:50 40.98167 17.01068 34963 ft 255 kts 283°
2026-05-07 11:50 40.98669 16.98824 34972 ft 254 kts 283°
2026-05-07 11:50 40.99169 16.96567 34917 ft 256 kts 283°
2026-05-07 11:50 40.99669 16.94293 34885 ft 257 kts 283°
2026-05-07 11:51 41.00159 16.92047 34923 ft 256 kts 283°
2026-05-07 11:51 41.00648 16.89790 34947 ft 254 kts 283°
2026-05-07 11:51 41.01133 16.87534 34932 ft 255 kts 283°
2026-05-07 11:51 41.01616 16.85264 34883 ft 256 kts 283°
2026-05-07 11:52 41.02096 16.82991 34882 ft 256 kts 283°
2026-05-07 11:52 41.02571 16.80723 34919 ft 255 kts 283°
2026-05-07 11:52 41.03041 16.78463 34931 ft 254 kts 282°
2026-05-07 11:52 41.03508 16.76197 34904 ft 255 kts 282°
2026-05-07 11:53 41.03973 16.73922 34881 ft 256 kts 282°
2026-05-07 11:53 41.04433 16.71645 34894 ft 255 kts 282°
2026-05-07 11:53 41.04888 16.69381 34935 ft 254 kts 282°
2026-05-07 11:53 41.05340 16.67114 34934 ft 254 kts 282°
2026-05-07 11:54 41.05782 16.64878 34912 ft 255 kts 281°
2026-05-07 11:54 41.06227 16.62600 34895 ft 255 kts 281°
2026-05-07 11:54 41.06668 16.60324 34909 ft 255 kts 281°
2026-05-07 11:54 41.07105 16.58051 34952 ft 254 kts 281°
2026-05-07 11:55 41.07700 16.55837 34943 ft 258 kts 292°
2026-05-07 11:55 41.08683 16.53805 34833 ft 268 kts 303°
2026-05-07 11:55 41.10046 16.52044 34733 ft 280 kts 315°
2026-05-07 11:55 41.11726 16.50681 34770 ft 288 kts 326°
2026-05-07 11:56 41.13638 16.49802 34852 ft 295 kts 337°
2026-05-07 11:56 41.15712 16.49442 34822 ft 308 kts 348°
2026-05-07 11:56 41.17865 16.49393 34726 ft 306 kts 341°
2026-05-07 11:56 41.19907 16.48802 34680 ft 295 kts 330°
2026-05-07 11:57 41.21884 16.47991 34593 ft 302 kts 335°
2026-05-07 11:57 41.23957 16.47334 34454 ft 311 kts 339°
2026-05-07 11:57 41.26116 16.46850 34368 ft 318 kts 342°
2026-05-07 11:58 41.30575 16.46366 34122 ft 331 kts 345°
2026-05-07 11:58 41.32913 16.46093 33839 ft 345 kts 344°
2026-05-07 11:58 41.35355 16.45716 33628 ft 361 kts 343°
2026-05-07 11:59 41.40384 16.44507 33617 ft 378 kts 346°
2026-05-07 11:59 41.43046 16.44269 33788 ft 388 kts 348°
2026-05-07 11:59 41.45763 16.44095 33928 ft 394 kts 349°
2026-05-07 11:59 41.48527 16.43909 34059 ft 398 kts 346°
2026-05-07 12:00 41.51191 16.43125 34168 ft 387 kts 330°
2026-05-07 12:00 41.53561 16.41568 34292 ft 386 kts 324°
2026-05-07 12:00 41.55941 16.39868 34409 ft 391 kts 324°
2026-05-07 12:00 41.58354 16.38128 34532 ft 396 kts 324°
2026-05-07 12:01 41.60800 16.36360 34653 ft 402 kts 324°
2026-05-07 12:01 41.63275 16.34574 34778 ft 407 kts 324°
2026-05-07 12:01 41.65777 16.32773 34895 ft 410 kts 324°
2026-05-07 12:01 41.68298 16.30963 35021 ft 411 kts 324°
2026-05-07 12:02 41.70817 16.29156 35143 ft 411 kts 324°
2026-05-07 12:02 41.73341 16.27343 35265 ft 411 kts 324°
2026-05-07 12:02 41.75861 16.25525 35388 ft 411 kts 324°
2026-05-07 12:02 41.78380 16.23709 35511 ft 411 kts 324°
2026-05-07 12:03 41.80900 16.21892 35636 ft 411 kts 324°
2026-05-07 12:03 41.83387 16.20098 35760 ft 411 kts 324°
2026-05-07 12:03 41.85903 16.18281 35889 ft 410 kts 324°
2026-05-07 12:03 41.88415 16.16465 36035 ft 411 kts 324°
2026-05-07 12:04 41.90935 16.14639 36173 ft 411 kts 324°
2026-05-07 12:04 41.93450 16.12813 36287 ft 411 kts 324°
2026-05-07 12:04 41.95966 16.10988 36417 ft 411 kts 324°
2026-05-07 12:04 41.98483 16.09161 36545 ft 411 kts 325°
2026-05-07 12:05 42.00997 16.07334 36670 ft 411 kts 325°
2026-05-07 12:05 42.03512 16.05504 36805 ft 411 kts 324°
2026-05-07 12:05 42.06022 16.03669 36967 ft 411 kts 324°
2026-05-07 12:06 42.11026 16.00005 37041 ft 407 kts 325°
2026-05-07 12:06 42.16011 15.96362 37029 ft 407 kts 324°
2026-05-07 12:07 42.20960 15.92743 37028 ft 407 kts 324°
2026-05-07 12:07 42.25941 15.89088 37030 ft 407 kts 324°
2026-05-07 12:08 42.30917 15.85428 37029 ft 407 kts 324°
2026-05-07 12:08 42.35902 15.81764 37035 ft 407 kts 324°
2026-05-07 12:09 42.40875 15.78097 37032 ft 408 kts 324°
2026-05-07 12:09 42.45824 15.74429 37174 ft 408 kts 324°
2026-05-07 12:09 42.48317 15.72582 37307 ft 409 kts 324°
2026-05-07 12:10 42.50813 15.70734 37450 ft 409 kts 324°
2026-05-07 12:10 42.53306 15.68888 37584 ft 409 kts 324°
2026-05-07 12:10 42.55800 15.67042 37738 ft 409 kts 324°
2026-05-07 12:10 42.58305 15.65184 37879 ft 409 kts 324°
2026-05-07 12:11 42.60807 15.63325 38043 ft 409 kts 324°
2026-05-07 12:11 42.63301 15.61471 38188 ft 408 kts 324°
2026-05-07 12:11 42.65790 15.59615 38316 ft 408 kts 324°
2026-05-07 12:11 42.68277 15.57756 38465 ft 407 kts 324°
2026-05-07 12:12 42.70762 15.55899 38606 ft 407 kts 324°
2026-05-07 12:12 42.73247 15.54043 38736 ft 407 kts 324°
2026-05-07 12:12 42.75731 15.52186 38848 ft 407 kts 324°
2026-05-07 12:12 42.78213 15.50329 39000 ft 408 kts 324°
2026-05-07 12:13 42.80705 15.48460 39022 ft 408 kts 324°
2026-05-07 12:13 42.85655 15.44742 39027 ft 409 kts 324°
2026-05-07 12:14 42.90638 15.41002 39029 ft 409 kts 324°
2026-05-07 12:14 42.95625 15.37254 39032 ft 409 kts 324°
2026-05-07 12:15 43.00607 15.33487 39033 ft 410 kts 324°
2026-05-07 12:15 43.05607 15.29709 39027 ft 411 kts 324°
2026-05-07 12:16 43.10626 15.25916 39025 ft 413 kts 324°
2026-05-07 12:16 43.15647 15.22108 39027 ft 413 kts 324°
2026-05-07 12:17 43.20647 15.18308 39027 ft 413 kts 324°
2026-05-07 12:17 43.25686 15.14467 39027 ft 415 kts 324°
2026-05-07 12:18 43.30735 15.10609 39027 ft 415 kts 324°
2026-05-07 12:18 43.35789 15.06755 39027 ft 415 kts 324°
2026-05-07 12:19 43.40841 15.02896 39029 ft 415 kts 324°
2026-05-07 12:19 43.45908 14.99007 39026 ft 417 kts 324°
2026-05-07 12:20 43.50990 14.95094 39027 ft 418 kts 324°
2026-05-07 12:20 43.56045 14.91196 39035 ft 418 kts 324°
2026-05-07 12:21 43.61135 14.87279 39024 ft 418 kts 324°
2026-05-07 12:21 43.66213 14.83350 39031 ft 419 kts 323°
2026-05-07 12:22 43.71303 14.79405 39024 ft 419 kts 324°
2026-05-07 12:22 43.76363 14.75479 39026 ft 420 kts 323°
2026-05-07 12:23 43.81457 14.71516 39028 ft 420 kts 323°
2026-05-07 12:23 43.86546 14.67549 39032 ft 420 kts 323°
2026-05-07 12:24 43.91634 14.63569 39030 ft 420 kts 323°
2026-05-07 12:24 43.96718 14.59592 39030 ft 420 kts 323°
2026-05-07 12:25 44.01776 14.55627 39030 ft 420 kts 323°
2026-05-07 12:25 44.06861 14.51631 39045 ft 420 kts 323°
2026-05-07 12:26 44.11958 14.47615 39023 ft 422 kts 323°
2026-05-07 12:26 44.17071 14.43590 39027 ft 422 kts 323°
2026-05-07 12:27 44.22182 14.39552 39025 ft 422 kts 323°
2026-05-07 12:27 44.27286 14.35501 39024 ft 422 kts 323°
2026-05-07 12:28 44.32396 14.31438 39040 ft 423 kts 323°
2026-05-07 12:28 44.37531 14.27353 39024 ft 425 kts 323°
2026-05-07 12:29 44.42644 14.23292 39017 ft 425 kts 324°
2026-05-07 12:29 44.45221 14.21242 38903 ft 425 kts 323°
2026-05-07 12:29 44.47791 14.19192 38793 ft 425 kts 323°
2026-05-07 12:30 44.52925 14.15077 38937 ft 425 kts 323°
2026-05-07 12:30 44.55494 14.13011 39076 ft 426 kts 323°
2026-05-07 12:30 44.58069 14.10945 39206 ft 426 kts 324°
2026-05-07 12:30 44.60646 14.08879 39338 ft 427 kts 324°
2026-05-07 12:31 44.63190 14.06836 39493 ft 426 kts 323°
2026-05-07 12:31 44.65758 14.04769 39633 ft 425 kts 323°
2026-05-07 12:31 44.68321 14.02704 39770 ft 425 kts 323°
2026-05-07 12:31 44.70883 14.00642 39910 ft 425 kts 323°
2026-05-07 12:32 44.73454 13.98571 40060 ft 425 kts 324°
2026-05-07 12:32 44.76022 13.96499 40201 ft 425 kts 324°
2026-05-07 12:32 44.78584 13.94425 40347 ft 425 kts 324°
2026-05-07 12:32 44.81150 13.92345 40490 ft 425 kts 324°
2026-05-07 12:33 44.86288 13.88170 40750 ft 427 kts 324°
2026-05-07 12:33 44.91401 13.84016 40618 ft 427 kts 324°
2026-05-07 12:34 44.93970 13.81929 40512 ft 425 kts 324°
2026-05-07 12:34 44.96546 13.79834 40529 ft 427 kts 324°
2026-05-07 12:34 45.01710 13.75628 40515 ft 428 kts 324°
2026-05-07 12:35 45.06878 13.71403 40516 ft 428 kts 324°
2026-05-07 12:35 45.11165 13.67886 40520 ft 428 kts 324°
2026-05-07 12:36 45.16324 13.63654 40522 ft 429 kts 324°
2026-05-07 12:36 45.21501 13.59399 40531 ft 430 kts 324°
2026-05-07 12:37 45.26676 13.55133 40515 ft 431 kts 324°
2026-05-07 12:37 45.31860 13.50852 40512 ft 431 kts 324°
2026-05-07 12:38 45.37043 13.46562 40511 ft 431 kts 324°
2026-05-07 12:38 45.42197 13.42292 40506 ft 432 kts 324°
2026-05-07 12:39 45.47386 13.37977 40506 ft 432 kts 324°
2026-05-07 12:39 45.52579 13.33645 40522 ft 432 kts 324°
2026-05-07 12:40 45.57765 13.29311 40509 ft 432 kts 324°
2026-05-07 12:40 45.62959 13.24960 40510 ft 433 kts 324°
2026-05-07 12:41 45.68159 13.20606 40510 ft 433 kts 324°
2026-05-07 12:41 45.73356 13.16232 40505 ft 433 kts 324°
2026-05-07 12:42 45.78521 13.11886 40485 ft 433 kts 324°
2026-05-07 12:42 45.83724 13.07504 40490 ft 434 kts 324°
2026-05-07 12:43 45.88928 13.03107 40476 ft 434 kts 324°
2026-05-07 12:43 45.94125 12.98692 40473 ft 434 kts 323°
2026-05-07 12:44 45.99317 12.94284 40518 ft 432 kts 324°
2026-05-07 12:44 46.04504 12.89870 40529 ft 434 kts 324°
2026-05-07 12:45 46.09693 12.85430 40526 ft 434 kts 324°
2026-05-07 12:45 46.14886 12.80976 40526 ft 434 kts 324°
2026-05-07 12:46 46.20039 12.76554 40485 ft 434 kts 324°
2026-05-07 12:46 46.25237 12.72111 40486 ft 434 kts 324°
2026-05-07 12:47 46.30428 12.67652 40492 ft 434 kts 324°
2026-05-07 12:47 46.35621 12.63169 40496 ft 435 kts 324°
2026-05-07 12:48 46.40822 12.58662 40494 ft 435 kts 324°
2026-05-07 12:48 46.46017 12.54152 40500 ft 436 kts 324°
2026-05-07 12:49 46.48641 12.51870 40396 ft 443 kts 324°
2026-05-07 12:49 46.51301 12.49557 40291 ft 450 kts 324°
2026-05-07 12:49 46.54016 12.47189 40137 ft 458 kts 324°
2026-05-07 12:49 46.56741 12.44806 39958 ft 466 kts 324°
2026-05-07 12:50 46.59571 12.42337 39754 ft 470 kts 324°
2026-05-07 12:50 46.62380 12.39892 39562 ft 471 kts 324°
2026-05-07 12:50 46.65151 12.37481 39372 ft 470 kts 324°
2026-05-07 12:50 46.67952 12.35035 39200 ft 469 kts 324°
2026-05-07 12:51 46.70739 12.32595 39024 ft 466 kts 324°
2026-05-07 12:51 46.73513 12.30162 38854 ft 465 kts 324°
2026-05-07 12:51 46.76283 12.27726 38673 ft 464 kts 324°
2026-05-07 12:51 46.79038 12.25294 38465 ft 462 kts 324°
2026-05-07 12:52 46.81781 12.22875 38259 ft 460 kts 324°
2026-05-07 12:52 46.84514 12.20465 38013 ft 457 kts 324°
2026-05-07 12:52 46.87233 12.18069 37726 ft 455 kts 324°
2026-05-07 12:52 46.89938 12.15684 37515 ft 453 kts 324°
2026-05-07 12:53 46.92628 12.13304 37307 ft 451 kts 324°
2026-05-07 12:53 46.95318 12.10920 37105 ft 449 kts 324°
2026-05-07 12:53 46.97987 12.08549 36896 ft 448 kts 324°
2026-05-07 12:53 47.00646 12.06185 36698 ft 446 kts 324°
2026-05-07 12:54 47.03295 12.03828 36493 ft 444 kts 324°
2026-05-07 12:54 47.05932 12.01483 36293 ft 442 kts 324°
2026-05-07 12:54 47.08524 11.99172 36097 ft 440 kts 324°
2026-05-07 12:54 47.11139 11.96836 35899 ft 438 kts 324°
2026-05-07 12:55 47.13739 11.94511 35702 ft 437 kts 324°
2026-05-07 12:55 47.16333 11.92193 35506 ft 434 kts 324°
2026-05-07 12:55 47.18908 11.89884 35331 ft 433 kts 324°
2026-05-07 12:55 47.21472 11.87580 35141 ft 431 kts 324°
2026-05-07 12:56 47.24031 11.85280 34951 ft 429 kts 324°
2026-05-07 12:56 47.26578 11.82991 34760 ft 427 kts 324°
2026-05-07 12:56 47.29116 11.80714 34558 ft 425 kts 324°
2026-05-07 12:56 47.31638 11.78447 34384 ft 424 kts 324°
2026-05-07 12:57 47.34150 11.76184 34197 ft 422 kts 324°
2026-05-07 12:57 47.36660 11.73925 34022 ft 421 kts 324°
2026-05-07 12:57 47.39157 11.71672 33802 ft 420 kts 324°
2026-05-07 12:57 47.41646 11.69423 33605 ft 417 kts 324°
2026-05-07 12:58 47.44113 11.67188 33385 ft 416 kts 324°
2026-05-07 12:58 47.46542 11.64981 33167 ft 414 kts 324°
2026-05-07 12:58 47.49021 11.62726 32963 ft 413 kts 324°
2026-05-07 12:58 47.51433 11.60531 32747 ft 411 kts 324°
2026-05-07 12:59 47.53866 11.58319 32536 ft 409 kts 324°
2026-05-07 12:59 47.56289 11.56114 32326 ft 408 kts 324°
2026-05-07 12:59 47.58703 11.53915 32120 ft 406 kts 325°
2026-05-07 12:59 47.61100 11.51728 31913 ft 404 kts 324°
2026-05-07 13:00 47.63491 11.49544 31708 ft 402 kts 324°
2026-05-07 13:00 47.65870 11.47369 31517 ft 401 kts 325°
2026-05-07 13:00 47.68244 11.45197 31312 ft 399 kts 325°
2026-05-07 13:00 47.70615 11.43023 31110 ft 398 kts 325°
2026-05-07 13:01 47.72937 11.40893 30921 ft 395 kts 326°
2026-05-07 13:01 47.75260 11.38760 30726 ft 391 kts 326°
2026-05-07 13:01 47.77565 11.36642 30540 ft 388 kts 326°
2026-05-07 13:01 47.79852 11.34537 30336 ft 386 kts 326°
2026-05-07 13:02 47.82129 11.32435 30154 ft 384 kts 326°
2026-05-07 13:02 47.84398 11.30338 29939 ft 382 kts 326°
2026-05-07 13:02 47.86649 11.28251 29707 ft 380 kts 326°
2026-05-07 13:02 47.88885 11.26179 29485 ft 377 kts 326°
2026-05-07 13:03 47.91103 11.24127 29248 ft 374 kts 326°
2026-05-07 13:03 47.93311 11.22082 29025 ft 372 kts 326°
2026-05-07 13:03 47.95506 11.20048 28788 ft 371 kts 326°
2026-05-07 13:03 47.97693 11.18018 28573 ft 370 kts 326°
2026-05-07 13:04 47.99872 11.15995 28353 ft 368 kts 326°
2026-05-07 13:04 48.02043 11.13979 28131 ft 367 kts 326°
2026-05-07 13:04 48.04204 11.11969 27913 ft 365 kts 326°
2026-05-07 13:04 48.06352 11.09969 27687 ft 362 kts 327°
2026-05-07 13:05 48.08455 11.08005 27474 ft 360 kts 326°
2026-05-07 13:05 48.10575 11.06022 27263 ft 359 kts 326°
2026-05-07 13:05 48.12692 11.04042 27071 ft 358 kts 326°
2026-05-07 13:05 48.14798 11.02075 26855 ft 357 kts 326°
2026-05-07 13:06 48.16901 11.00108 26646 ft 355 kts 326°
2026-05-07 13:06 48.18992 10.98147 26439 ft 354 kts 326°
2026-05-07 13:06 48.21082 10.96187 26232 ft 353 kts 326°
2026-05-07 13:06 48.23166 10.94229 26030 ft 352 kts 326°
2026-05-07 13:07 48.25241 10.92278 25820 ft 351 kts 326°
2026-05-07 13:07 48.27310 10.90333 25627 ft 350 kts 326°
2026-05-07 13:07 48.29372 10.88392 25419 ft 349 kts 326°
2026-05-07 13:07 48.31426 10.86453 25221 ft 348 kts 326°
2026-05-07 13:08 48.33479 10.84517 25022 ft 347 kts 326°
2026-05-07 13:08 48.35523 10.82586 24826 ft 346 kts 326°
2026-05-07 13:08 48.37562 10.80657 24629 ft 345 kts 326°
2026-05-07 13:08 48.39588 10.78738 24432 ft 343 kts 326°
2026-05-07 13:09 48.41608 10.76824 24240 ft 342 kts 326°
2026-05-07 13:09 48.43619 10.74916 24045 ft 341 kts 326°
2026-05-07 13:09 48.45597 10.73034 23862 ft 340 kts 326°
2026-05-07 13:09 48.47598 10.71130 23673 ft 339 kts 326°
2026-05-07 13:10 48.49602 10.69226 23461 ft 338 kts 326°
2026-05-07 13:10 48.51597 10.67331 23236 ft 337 kts 326°
2026-05-07 13:10 48.53579 10.65444 23008 ft 336 kts 326°
2026-05-07 13:10 48.55530 10.63584 22797 ft 335 kts 326°
2026-05-07 13:11 48.57495 10.61705 22575 ft 334 kts 326°
2026-05-07 13:11 48.59457 10.59825 22371 ft 333 kts 326°
2026-05-07 13:11 48.61411 10.57953 22161 ft 331 kts 326°
2026-05-07 13:11 48.63355 10.56091 21946 ft 330 kts 326°
2026-05-07 13:12 48.65296 10.54237 21731 ft 329 kts 326°
2026-05-07 13:12 48.67230 10.52388 21520 ft 328 kts 326°
2026-05-07 13:12 48.69154 10.50543 21310 ft 327 kts 325°
2026-05-07 13:12 48.71071 10.48699 21103 ft 325 kts 326°
2026-05-07 13:13 48.72975 10.46867 20895 ft 323 kts 325°
2026-05-07 13:13 48.74845 10.45066 20686 ft 322 kts 325°
2026-05-07 13:13 48.76735 10.43248 20448 ft 321 kts 325°